THORAD DELTA 1 DEB, 8399

Orbit data source: Space-Track

THORAD DELTA 1 DEB, 8399 is space debris in SSO originally from a launch on Fri, 15 Nov 1974 UTC launched from the Air Force Western Test Range (AFWTR). Debris objects in space refer to the collection of defunct objects orbiting the Earth. Examples of debris include non-operational satellites, rocket bodies, and fragments generated from explosions, collisions, or faulty payload assembly.

Loading next visibility...
Identifier
8399, 1974-089CB
Orbit
SSO
Country
Flag of USUS
Related business
Manufacturer
Unknown
Mission
Spacecraft
Bus & Motor
Unknown
Mass
Unknown
Launch date (UTC)
1974-11-15 (51 years ago)
Launch vehicle
Unknown
Launch site
Air Force Western Test Range (AFWTR)
Object type
Payload
Rocket body
Debris
Shape & HBR
Unknown shape, 0.2 m
Radar Cross Section
Small (<0.1 m²)

Expand to show TLE details & history
Last TLE update: 4 hours ago

TLE from 4 hours ago
0 THORAD DELTA 1 DEB
1  8399U 74089CB  25289.18836002  .00000045  00000-0  63364-3 0  9995
2  8399 101.7196 270.2810 0156661  56.6526 315.4403 12.38869433304915
Epoch: 2025-10-16T04:31Z
TLE epoch observation values (Epoch: 2025-10-16T04:31:14.305Z)
Latitude
10.54237°
Longitude
175.31812°
Altitude
1,426.105 km
Speed
7.188 km/s
True Right ascension
17h 52m 19s
True Declination
10° 29' 09"
Sunlit
Object was in daylight at epoch
Visualization orbit readout
Latitude
Unknown
Longitude
Unknown
Altitude
Unknown
Speed
Unknown
Apparent Right ascension
Unknown
Apparent Declination
Unknown
Sunlit
N/A
Visualization observer readout
Local Sidereal Time
03:36:43
Azimuth
Unknown
Elevation
Unknown
Doppler factor
Unknown
Orbital elements
Apogee altitude
1,632.518 km
Perigee altitude
1,385.398 km
Semi-major axis
7,887.095 km
Eccentricity
0.01567
Inclination
101.7196°
RAAN
270.281°
Arg. of periapsis
56.6526°
True anomaly
314.16298°
Mean anomaly
315.4403°
Eccentric anomaly
314.80343°
Mean motion
3.09861 °/min
Orbital period
116.18 mins
BSTAR
0.00063364
Loading maneuver chart data...
Computing Atmospheric mass density...

Documentation

Showing up to 5 results
|